SCP
0 -0 -0 -0 -0 -0 -0 -0 -0 -0 -0 -0 -0 -0 -0 0 -0 -0 -0 -0 -0 -0 -0 -0 -0 -0 -0 -0 -0 -0 -0 -0 0 0 0 0 0 0 0 -0 -0 -0 -0
-0 -0 -0 -0 -0 -0 -0 -0 -0 -0 -0 -0 -0 -0 -0 -0 -0 -0 -0 -0 -0 -0 -0 -0 -0 -0 -0 -0 -0 -0 -0 -0 0 0 -0 0 0 0 0 -0 0 0 0
-0 -0 -0 -0 -0 -0 -0 -0 -0 -0 -0 -0 -0 -0 -0 -0 -0 -0 -0 -0 -0 -0 -0 -0 -0 -0 -0 -0 -0 -0 -0 -0 -0 0 -0 0 0 0 0 0 0 0 0
-0 -0 -0 -0 -0 -1 -0 -0 -0 -0 -0 -0 -0 -0 -0 -0 0 -0 -0 -0 -0 -0 -0 -0 -0 -0 -0 -0 -0 0 0 -0 -0 -0 0 0 0 0 -0 -0 -0 0 0
-0 -0 -0 -0 -0 -0 -0 -0 -0 -0 -0 -0 -0 -0 -0 -0 -0 -0 -0 -0 -0 -0 -0 -0 -0 -0 -0 -0 -0 0 0 0 0 -0 -0 0 0 0 -0 -0 -0 -0 -0
-0 0 -0 -0 -0 -0 -0 -0 -0 -0 -0 -0 -0 -0 -0 -0 -0 0 -0 -0 -0 -0 -0 -0 -0 -0 -0 -0 0 0 -0 -0 -0 0 0 0 0 -0 -0 -0 -0 -0 -0
0 -0 0 -0 -0 -0 -0 -0 -0 -0 -0 -0 -0 -0 -0 -0 0 0 0 -0 -0 -0 -0 -0 -0 -0 -0 0 -0 0 -0 -0 -0 0 0 0 0 -0 -0 -0 -0 -0 -0
0 0 -0 -0 -0 -0 -0 -0 -0 -0 -0 -0 -0 -0 -0 -0 0 0 0 -0 0 -0 -0 -0 -0 -0 -0 -0 -0 0 0 0 -0 0 0 0 0 -0 -0 -0 -0 -0 -0
0 0 0 0 -0 -0 -0 -0 -0 -0 -0 -0 -0 -0 -0 -0 -0 -0 -0 0 0 0 0 0 0 0 -0 -0 -0 0 0 0 -0 -0 -0 0 0 -0 -0 -0 -0 -0 -0
0 0 0 -0 -0 -0 0 -0 -0 -0 -0 -0 -0 -0 -0 -0 0 0 0 -0 0 0 0 0 0 -0 -0 -0 0 0 0 0 0 0 0 0 -0 -0 -0 -0 -0 -0 -0
0 0 0 0 -0 -0 -0 0 -0 -0 -0 -0 -0 -0 -0 -0 -0 0 0 -0 0 -0 0 0 0 -0 -0 -0 0 0 0 0 -0 0 0 -0 -0 -0 -0 -0 -0 -0 -0
0 0 0 -0 -0 0 -0 -0 -0 -0 0 -0 0 0 0 0 -0 0 0 -0 0 0 0 0 0 0 0 0 0 0 0 0 0 0 0 -0 -0 -0 -0 -0 -0 -0 -0
0 0 0 -0 -0 0 0 -0 -0 -0 0 0 0 0 0 0 0 0 0 0 0 -0 0 0 0 0 0 0 0 0 0 0 0 0 0 -0 -0 -0 -0 -0 -0 -0 -0
0 0 0 0 -0 -0 -0 -0 0 0 0 0 0 0 0 0 0 0 0 0 0 0 0 0 0 0 0 0 0 0 0 0 -0 0 0 -0 -0 -0 -0 -0 -0 -0 -0
0 0 0 0 0 0 0 -0 0 0 0 0 0 0 0 0 -0 0 0 0 0 0 0 0 0 0 0 0 0 0 0 0 0 0 0 0 -0 -0 -0 -0 -0 -0 -0
0 0 0 0 0 0 0 0 -0 -0 -0 0 0 0 0 0 0 0 0 0 0 0 0 0 0 0 0 0 0 0 0 0 0 -0 0 0 -0 -0 -0 -0 -0 -0 -0
0 0 0 0 0 -0 -0 0 0 0 0 -0 -0 0 0 0 0 0 0 0 0 0 0 0 0 0 0 0 0 0 0 0 0 0 0 0 0 -0 -0 -0 0 0 0
0 0 0 0 0 0 0 0 0 -0 -0 -0 0 -0 0 0 0 0 0 0 0 0 0 0 0 0 0 0 0 0 0 0 0 0 0 0 0 0 0 0 0 0 0
0 0 0 0 0 0 0 0 0 0 -0 -0 0 -0 -0 0 0 0 0 0 0 0 0 0 0 0 0 0 0 0 0 0 0 0 0 0 0 0 0 0 0 0 0
0 0 0 0 0 0 0 0 0 0 -0 -0 -0 -0 -0 0 0 0 0 0 0 0 0 0 0 0 0 0 0 0 0 0 0 0 0 0 0 0 0 0 0 0 0
0 0 0 0 0 0 0 0 0 0 0 0 -0 -0 -0 -0 0 0 0 0 0 0 0 0 0 0 0 0 0 0 0 0 0 0 0 0 0 0 0 0 0 0 0
0 0 0 -0 0 0 0 0 0 0 -0 -0 -0 -0 -0 -0 0 0 0 0 0 0 0 0 0 0 0 0 0 0 0 0 0 0 0 0 0 0 0 0 0 0 0
0 0 0 -0 -0 -0 0 0 0 0 0 0 0 -0 0 0 0 0 0 0 0 0 0 0 0 0 0 0 0 0 0 0 0 0 0 0 0 0 0 0 0 0 0
0 0 0 0 -0 -0 0 0 0 0 0 0 0 0 0 0 0 0 0 0 0 0 0 0 0 0 0 0 0 0 0 0 0 0 0 0 0 0 0 0 0 0 0
0 1 0 0 -0 0 0 0 0 0 0 0 0 0 0 0 0 0 0 0 0 0 0 0 0 0 0 0 0 0 0 0 0 0 0 0 0 0 0 0 0 0 0
1 1 1 0 0 -0 0 0 0 0 0 0 0 0 0 0 0 0 0 0 0 0 0 0 0 0 0 0 0 0 0 0 0 0 0 0 0 0 0 0 0 0 0
Wind_Speed_500mb
45 42 43 45 44 42 39 32 30 29 29 31 31 32 31 26 24 23 23 24 25 22 19 18 21 25 26 24 24 22 26 26 22 24 25 27 26 25 22 24 25 23 23
52 48 45 45 45 43 39 32 29 28 27 28 30 29 30 27 26 24 24 25 24 19 20 21 27 27 27 25 22 23 26 23 24 23 23 23 26 24 22 25 24 22 25
50 51 48 45 44 44 39 34 31 26 24 25 27 30 28 27 27 23 22 23 20 19 21 21 23 30 24 25 28 33 32 27 28 26 25 20 20 21 23 24 26 23 21
50 54 50 46 44 43 42 39 33 28 24 25 28 26 28 26 25 24 21 24 21 20 18 20 23 32 29 27 33 37 33 28 25 25 22 21 19 23 22 24 26 22 20
48 52 51 47 43 42 41 38 34 29 25 23 23 23 25 26 25 23 22 22 22 24 19 22 27 33 30 33 35 37 38 32 28 26 23 20 18 22 25 24 21 21 22
50 50 49 46 42 40 39 38 36 31 27 24 24 25 26 27 25 22 21 22 24 25 18 25 29 32 34 37 41 37 35 29 27 27 23 19 17 18 20 20 19 18 17
47 47 48 45 40 37 37 36 36 33 27 24 25 24 22 22 23 21 21 22 23 24 20 28 31 32 35 38 31 25 25 25 22 24 23 19 17 14 16 17 15 16 15
44 47 47 46 40 36 36 36 34 34 30 26 25 25 22 21 20 21 21 22 23 21 20 31 32 36 36 31 29 23 18 20 22 21 19 17 16 15 14 14 13 14 13
44 47 48 48 43 39 37 37 34 33 31 27 25 25 23 22 20 20 21 22 22 18 26 32 34 37 32 29 26 23 19 22 22 18 14 12 12 13 13 12 11 12 12
39 36 37 39 44 42 40 39 37 34 32 28 25 25 25 25 22 20 20 22 22 18 27 31 35 36 33 30 26 20 17 19 17 12 9 5 5 9 10 11 11 13 13
42 41 37 44 43 43 42 40 38 36 31 30 27 25 26 27 25 21 22 22 22 20 27 30 34 35 35 30 25 20 15 18 17 8 5 8 6 3 6 9 12 13 13
43 43 44 40 43 42 42 43 41 38 35 32 30 29 29 29 28 25 23 22 21 22 25 30 33 34 36 33 32 29 20 20 17 7 4 12 12 6 5 9 12 14 15
33 31 38 44 46 44 43 44 42 39 37 35 34 30 28 29 29 29 26 25 24 24 24 29 34 35 35 39 38 33 26 24 19 13 8 12 14 9 9 9 11 15 16
38 27 30 43 47 47 46 44 41 41 40 38 37 34 34 35 30 27 25 26 23 22 24 26 30 34 36 38 37 35 33 32 28 21 18 17 16 12 10 12 13 14 16
43 34 30 38 48 48 47 45 44 43 42 40 39 37 35 34 32 29 28 26 25 24 25 27 28 32 36 37 37 36 36 38 35 30 22 19 20 17 14 16 16 17 16
50 41 34 34 38 48 48 46 45 44 43 42 41 38 37 36 33 33 30 29 27 25 26 26 27 29 33 37 40 38 36 38 37 35 28 25 23 20 20 16 18 17 21
48 48 39 35 33 38 44 46 46 46 45 45 43 41 40 39 36 36 34 34 32 28 26 29 33 29 29 37 41 44 37 32 37 40 34 24 29 24 19 26 23 22 22
53 53 42 38 35 36 37 39 39 48 49 46 44 43 42 40 40 37 38 35 34 35 34 32 34 33 33 34 33 43 41 38 38 40 41 34 30 29 30 27 28 30 28
52 53 48 41 36 36 36 37 33 41 49 46 45 46 45 42 41 40 38 37 37 40 42 40 38 37 34 35 36 35 39 41 41 40 39 36 31 32 32 31 34 32 34
56 51 49 42 36 34 36 37 35 40 45 44 42 42 43 43 40 41 40 38 38 40 44 45 44 42 38 36 35 33 30 34 39 38 39 38 37 35 35 35 37 39 41
60 58 55 49 43 41 42 41 38 40 44 48 44 38 35 38 38 38 35 38 42 46 47 44 46 45 41 40 39 37 34 32 42 44 42 41 40 39 39 43 47 48 50
63 61 58 52 48 44 41 32 28 24 32 37 39 37 36 38 36 40 42 42 45 48 51 50 51 48 46 45 42 35 35 39 42 49 48 48 48 47 47 49 53 53 58
68 69 62 56 50 45 38 35 31 29 28 32 40 38 37 36 34 36 40 41 47 50 55 62 57 48 50 45 42 36 16 22 26 39 52 54 54 52 49 50 53 52 49
75 71 65 59 51 46 42 42 38 33 30 27 23 19 21 25 28 30 34 37 44 53 61 62 58 57 49 47 44 45 46 39 26 23 34 48 53 54 51 45 44 39 33
82 75 70 61 53 48 46 43 40 36 28 22 21 21 21 22 24 26 29 34 40 42 51 58 61 61 44 40 41 44 48 52 52 47 35 33 37 36 39 35 38 35 29
88 81 72 65 57 51 50 44 41 36 32 28 26 20 18 22 22 21 21 25 26 27 31 45 53 55 58 44 39 42 44 48 52 55 58 62 61 56 51 49 46 41 37
Wind_Direction_500mb
166 167 165 166 167 164 161 155 145 138 137 140 145 151 155 159 150 143 140 139 136 135 140 143 140 137 142 137 133 130 124 128 130 122 123 119 121 122 129 120 122 123 121
159 165 164 167 167 166 163 155 147 140 136 138 143 147 151 152 146 144 143 143 139 134 124 131 137 126 133 138 143 141 133 125 122 119 123 134 141 141 127 127 123 118 122
163 164 163 167 168 167 166 161 156 147 140 140 141 148 145 144 140 140 145 143 146 139 135 139 138 130 136 134 129 128 123 120 111 110 121 121 131 136 129 133 128 129 130
168 166 164 164 168 169 168 167 162 153 149 146 148 151 151 147 146 147 146 148 153 146 138 144 140 138 137 123 120 124 128 128 120 117 119 129 124 132 130 136 139 142 136
174 173 167 166 167 169 170 170 168 164 158 153 154 155 153 151 152 150 151 147 149 146 139 146 143 138 136 139 136 126 122 118 113 117 119 121 127 134 141 138 139 143 143
177 177 173 170 170 170 171 173 173 171 165 160 155 154 154 155 157 155 153 149 149 148 147 151 146 146 145 140 137 130 129 120 111 113 121 119 125 130 147 146 151 149 150
176 179 180 177 178 177 174 175 176 172 170 164 154 151 151 151 156 153 153 155 154 153 154 158 150 150 146 145 144 139 137 139 127 122 121 122 131 131 148 165 164 164 165
179 181 184 183 184 185 183 180 179 176 175 171 162 158 156 154 152 161 154 157 156 157 161 164 160 157 152 150 146 143 138 146 138 132 126 128 145 142 157 170 175 180 172
182 186 187 186 188 188 188 187 182 181 179 176 169 163 161 157 153 160 160 157 159 158 164 168 169 168 164 159 155 146 131 141 140 129 114 121 151 158 168 177 186 187 187
182 189 192 195 192 190 188 189 185 186 184 181 178 171 167 167 167 166 166 168 164 162 166 172 176 177 175 173 167 155 144 150 156 142 145 142 125 173 189 192 196 196 199
187 192 191 197 199 195 189 189 188 188 190 183 186 182 174 171 174 172 179 172 170 170 170 176 180 183 184 181 176 173 168 160 161 158 170 195 202 213 234 214 207 211 212
178 191 200 193 198 198 193 190 191 190 191 188 188 189 182 176 177 176 179 178 177 175 175 180 184 189 194 192 190 190 187 181 182 197 261 230 216 243 222 222 218 218 219
186 182 193 195 196 198 199 196 194 195 195 192 191 194 190 188 186 189 186 187 183 182 187 185 189 195 197 200 198 203 200 201 206 217 219 224 207 226 225 230 228 225 225
194 188 189 195 198 198 201 203 203 201 201 200 196 198 196 197 198 197 194 190 191 193 191 190 195 197 199 202 206 210 216 214 216 224 229 225 217 222 237 235 237 236 234
200 192 185 190 196 198 203 206 207 207 209 207 205 205 206 205 206 203 203 203 200 202 202 200 197 200 205 206 210 213 216 213 219 227 230 234 238 233 253 239 243 243 239
204 199 191 186 192 202 206 209 210 212 211 212 213 213 212 213 213 212 213 208 209 208 209 208 203 207 210 213 213 213 212 218 225 229 235 236 239 248 253 256 250 251 249
198 201 199 193 193 199 207 213 215 213 213 215 216 220 221 217 214 215 216 218 215 210 206 207 208 211 211 215 218 213 220 227 233 238 238 246 239 241 249 253 266 264 263
203 201 203 201 203 203 204 210 219 221 218 217 217 219 220 221 220 220 223 224 220 217 216 213 213 218 220 219 218 222 232 236 239 242 236 244 242 247 252 261 262 267 270
207 205 206 207 209 208 209 210 222 220 221 221 219 220 222 223 226 229 229 229 226 225 224 221 223 226 223 225 226 232 238 240 240 237 243 246 249 245 255 257 264 266 270
211 209 214 213 210 209 211 212 217 215 219 223 223 224 225 227 224 230 229 231 234 231 235 233 232 230 232 230 234 239 241 240 239 240 241 245 247 250 257 261 263 267 272
215 211 212 214 210 208 206 210 216 215 216 221 223 223 225 227 230 228 233 235 236 235 238 240 243 240 239 237 238 240 245 252 248 242 248 250 250 251 258 265 270 272 277
220 214 212 213 211 213 212 216 223 220 218 219 220 223 227 230 236 244 247 244 246 243 241 244 244 241 234 238 240 245 257 262 253 246 248 249 253 259 264 270 273 272 279
220 217 212 214 211 213 213 209 210 205 208 213 215 226 232 234 239 247 253 250 250 245 244 241 239 243 243 235 230 231 231 242 261 256 251 253 255 256 263 265 272 275 279
221 219 215 215 212 212 212 212 213 215 211 207 216 228 235 241 247 257 257 263 260 254 247 242 240 238 241 234 230 236 239 253 267 274 262 251 251 253 259 262 269 275 276
222 218 217 215 214 213 213 216 213 213 211 211 216 220 246 250 256 262 270 274 275 265 256 247 232 225 229 236 242 245 252 256 257 251 260 262 258 255 259 262 270 270 266
222 217 217 216 215 215 215 215 214 214 209 210 218 229 249 251 251 262 278 285 282 276 263 244 239 239 223 237 251 253 255 256 258 257 257 260 263 266 265 272 267 262 267
Wind_Speed_850mb
45 42 43 45 44 42 39 32 30 29 29 31 31 32 31 26 24 23 23 24 25 22 19 18 21 25 26 24 24 22 26 26 22 24 25 27 26 25 22 24 25 23 23
52 48 45 45 45 43 39 32 29 28 27 28 30 29 30 27 26 24 24 25 24 19 20 21 27 27 27 25 22 23 26 23 24 23 23 23 26 24 22 25 24 22 25
50 51 48 45 44 44 39 34 31 26 24 25 27 30 28 27 27 23 22 23 20 19 21 21 23 30 24 25 28 33 32 27 28 26 25 20 20 21 23 24 26 23 21
50 54 50 46 44 43 42 39 33 28 24 25 28 26 28 26 25 24 21 24 21 20 18 20 23 32 29 27 33 37 33 28 25 25 22 21 19 23 22 24 26 22 20
48 52 51 47 43 42 41 38 34 29 25 23 23 23 25 26 25 23 22 22 22 24 19 22 27 33 30 33 35 37 38 32 28 26 23 20 18 22 25 24 21 21 22
50 50 49 46 42 40 39 38 36 31 27 24 24 25 26 27 25 22 21 22 24 25 18 25 29 32 34 37 41 37 35 29 27 27 23 19 17 18 20 20 19 18 17
47 47 48 45 40 37 37 36 36 33 27 24 25 24 22 22 23 21 21 22 23 24 20 28 31 32 35 38 31 25 25 25 22 24 23 19 17 14 16 17 15 16 15
44 47 47 46 40 36 36 36 34 34 30 26 25 25 22 21 20 21 21 22 23 21 20 31 32 36 36 31 29 23 18 20 22 21 19 17 16 15 14 14 13 14 13
44 47 48 48 43 39 37 37 34 33 31 27 25 25 23 22 20 20 21 22 22 18 26 32 34 37 32 29 26 23 19 22 22 18 14 12 12 13 13 12 11 12 12
39 36 37 39 44 42 40 39 37 34 32 28 25 25 25 25 22 20 20 22 22 18 27 31 35 36 33 30 26 20 17 19 17 12 9 5 5 9 10 11 11 13 13
42 41 37 44 43 43 42 40 38 36 31 30 27 25 26 27 25 21 22 22 22 20 27 30 34 35 35 30 25 20 15 18 17 8 5 8 6 3 6 9 12 13 13
43 43 44 40 43 42 42 43 41 38 35 32 30 29 29 29 28 25 23 22 21 22 25 30 33 34 36 33 32 29 20 20 17 7 4 12 12 6 5 9 12 14 15
33 31 38 44 46 44 43 44 42 39 37 35 34 30 28 29 29 29 26 25 24 24 24 29 34 35 35 39 38 33 26 24 19 13 8 12 14 9 9 9 11 15 16
38 27 30 43 47 47 46 44 41 41 40 38 37 34 34 35 30 27 25 26 23 22 24 26 30 34 36 38 37 35 33 32 28 21 18 17 16 12 10 12 13 14 16
43 34 30 38 48 48 47 45 44 43 42 40 39 37 35 34 32 29 28 26 25 24 25 27 28 32 36 37 37 36 36 38 35 30 22 19 20 17 14 16 16 17 16
50 41 34 34 38 48 48 46 45 44 43 42 41 38 37 36 33 33 30 29 27 25 26 26 27 29 33 37 40 38 36 38 37 35 28 25 23 20 20 16 18 17 21
48 48 39 35 33 38 44 46 46 46 45 45 43 41 40 39 36 36 34 34 32 28 26 29 33 29 29 37 41 44 37 32 37 40 34 24 29 24 19 26 23 22 22
53 53 42 38 35 36 37 39 39 48 49 46 44 43 42 40 40 37 38 35 34 35 34 32 34 33 33 34 33 43 41 38 38 40 41 34 30 29 30 27 28 30 28
52 53 48 41 36 36 36 37 33 41 49 46 45 46 45 42 41 40 38 37 37 40 42 40 38 37 34 35 36 35 39 41 41 40 39 36 31 32 32 31 34 32 34
56 51 49 42 36 34 36 37 35 40 45 44 42 42 43 43 40 41 40 38 38 40 44 45 44 42 38 36 35 33 30 34 39 38 39 38 37 35 35 35 37 39 41
60 58 55 49 43 41 42 41 38 40 44 48 44 38 35 38 38 38 35 38 42 46 47 44 46 45 41 40 39 37 34 32 42 44 42 41 40 39 39 43 47 48 50
63 61 58 52 48 44 41 32 28 24 32 37 39 37 36 38 36 40 42 42 45 48 51 50 51 48 46 45 42 35 35 39 42 49 48 48 48 47 47 49 53 53 58
68 69 62 56 50 45 38 35 31 29 28 32 40 38 37 36 34 36 40 41 47 50 55 62 57 48 50 45 42 36 16 22 26 39 52 54 54 52 49 50 53 52 49
75 71 65 59 51 46 42 42 38 33 30 27 23 19 21 25 28 30 34 37 44 53 61 62 58 57 49 47 44 45 46 39 26 23 34 48 53 54 51 45 44 39 33
82 75 70 61 53 48 46 43 40 36 28 22 21 21 21 22 24 26 29 34 40 42 51 58 61 61 44 40 41 44 48 52 52 47 35 33 37 36 39 35 38 35 29
88 81 72 65 57 51 50 44 41 36 32 28 26 20 18 22 22 21 21 25 26 27 31 45 53 55 58 44 39 42 44 48 52 55 58 62 61 56 51 49 46 41 37
Wind_Direction_850mb
166 167 165 166 167 164 161 155 145 138 137 140 145 151 155 159 150 143 140 139 136 135 140 143 140 137 142 137 133 130 124 128 130 122 123 119 121 122 129 120 122 123 121
159 165 164 167 167 166 163 155 147 140 136 138 143 147 151 152 146 144 143 143 139 134 124 131 137 126 133 138 143 141 133 125 122 119 123 134 141 141 127 127 123 118 122
163 164 163 167 168 167 166 161 156 147 140 140 141 148 145 144 140 140 145 143 146 139 135 139 138 130 136 134 129 128 123 120 111 110 121 121 131 136 129 133 128 129 130
168 166 164 164 168 169 168 167 162 153 149 146 148 151 151 147 146 147 146 148 153 146 138 144 140 138 137 123 120 124 128 128 120 117 119 129 124 132 130 136 139 142 136
174 173 167 166 167 169 170 170 168 164 158 153 154 155 153 151 152 150 151 147 149 146 139 146 143 138 136 139 136 126 122 118 113 117 119 121 127 134 141 138 139 143 143
177 177 173 170 170 170 171 173 173 171 165 160 155 154 154 155 157 155 153 149 149 148 147 151 146 146 145 140 137 130 129 120 111 113 121 119 125 130 147 146 151 149 150
176 179 180 177 178 177 174 175 176 172 170 164 154 151 151 151 156 153 153 155 154 153 154 158 150 150 146 145 144 139 137 139 127 122 121 122 131 131 148 165 164 164 165
179 181 184 183 184 185 183 180 179 176 175 171 162 158 156 154 152 161 154 157 156 157 161 164 160 157 152 150 146 143 138 146 138 132 126 128 145 142 157 170 175 180 172
182 186 187 186 188 188 188 187 182 181 179 176 169 163 161 157 153 160 160 157 159 158 164 168 169 168 164 159 155 146 131 141 140 129 114 121 151 158 168 177 186 187 187
182 189 192 195 192 190 188 189 185 186 184 181 178 171 167 167 167 166 166 168 164 162 166 172 176 177 175 173 167 155 144 150 156 142 145 142 125 173 189 192 196 196 199
187 192 191 197 199 195 189 189 188 188 190 183 186 182 174 171 174 172 179 172 170 170 170 176 180 183 184 181 176 173 168 160 161 158 170 195 202 213 234 214 207 211 212
178 191 200 193 198 198 193 190 191 190 191 188 188 189 182 176 177 176 179 178 177 175 175 180 184 189 194 192 190 190 187 181 182 197 261 230 216 243 222 222 218 218 219
186 182 193 195 196 198 199 196 194 195 195 192 191 194 190 188 186 189 186 187 183 182 187 185 189 195 197 200 198 203 200 201 206 217 219 224 207 226 225 230 228 225 225
194 188 189 195 198 198 201 203 203 201 201 200 196 198 196 197 198 197 194 190 191 193 191 190 195 197 199 202 206 210 216 214 216 224 229 225 217 222 237 235 237 236 234
200 192 185 190 196 198 203 206 207 207 209 207 205 205 206 205 206 203 203 203 200 202 202 200 197 200 205 206 210 213 216 213 219 227 230 234 238 233 253 239 243 243 239
204 199 191 186 192 202 206 209 210 212 211 212 213 213 212 213 213 212 213 208 209 208 209 208 203 207 210 213 213 213 212 218 225 229 235 236 239 248 253 256 250 251 249
198 201 199 193 193 199 207 213 215 213 213 215 216 220 221 217 214 215 216 218 215 210 206 207 208 211 211 215 218 213 220 227 233 238 238 246 239 241 249 253 266 264 263
203 201 203 201 203 203 204 210 219 221 218 217 217 219 220 221 220 220 223 224 220 217 216 213 213 218 220 219 218 222 232 236 239 242 236 244 242 247 252 261 262 267 270
207 205 206 207 209 208 209 210 222 220 221 221 219 220 222 223 226 229 229 229 226 225 224 221 223 226 223 225 226 232 238 240 240 237 243 246 249 245 255 257 264 266 270
211 209 214 213 210 209 211 212 217 215 219 223 223 224 225 227 224 230 229 231 234 231 235 233 232 230 232 230 234 239 241 240 239 240 241 245 247 250 257 261 263 267 272
215 211 212 214 210 208 206 210 216 215 216 221 223 223 225 227 230 228 233 235 236 235 238 240 243 240 239 237 238 240 245 252 248 242 248 250 250 251 258 265 270 272 277
220 214 212 213 211 213 212 216 223 220 218 219 220 223 227 230 236 244 247 244 246 243 241 244 244 241 234 238 240 245 257 262 253 246 248 249 253 259 264 270 273 272 279
220 217 212 214 211 213 213 209 210 205 208 213 215 226 232 234 239 247 253 250 250 245 244 241 239 243 243 235 230 231 231 242 261 256 251 253 255 256 263 265 272 275 279
221 219 215 215 212 212 212 212 213 215 211 207 216 228 235 241 247 257 257 263 260 254 247 242 240 238 241 234 230 236 239 253 267 274 262 251 251 253 259 262 269 275 276
222 218 217 215 214 213 213 216 213 213 211 211 216 220 246 250 256 262 270 274 275 265 256 247 232 225 229 236 242 245 252 256 257 251 260 262 258 255 259 262 270 270 266
222 217 217 216 215 215 215 215 214 214 209 210 218 229 249 251 251 262 278 285 282 276 263 244 239 239 223 237 251 253 255 256 258 257 257 260 263 266 265 272 267 262 267